Location: *
(48.8489°N, 2.3218°E)
Time: 22:38:15
(UTC+00:00)

Cosmos 1125 Rocket - Pass Details

Date: 23 August 2019
Orbit: 757 x 781 km, 74.0° (Epoch: 22 September)

Event Time Altitude Azimuth Distance (km) Brightness Sun altitude
Exits shadow 22:52:40 41° 267° (W) 1,106 4.3 -28.4°
Maximum altitude 22:53:41 46° 300° (WNW) 1,024 4.3 -28.4°
Drops below altitude 10° 22:58:46 10° 14° (NNE) 2,324 6.7 -28.7°
Sets 23:01:16 0° 20° (NNE) 3,259 7.5 -28.8°
